Theta_e
312 314 317 320 320 320 323 328 333 334 334 334 332 333 333 332 333 334 336 339 340 341 339 339 339 340 341 341 341 338 337 334 329 320 319 318 319 320 317 315 316 321 329
304 308 310 313 315 319 320 322 324 330 337 334 335 335 335 334 335 334 336 340 341 340 340 338 338 342 341 341 340 336 332 330 325 315 313 311 314 313 314 312 313 311 314
302 305 305 306 308 309 311 313 320 324 326 332 339 337 334 333 331 330 333 336 342 341 340 341 340 340 343 342 339 336 331 327 323 317 313 309 307 308 312 309 308 307 306
299 301 302 303 305 305 307 308 310 312 322 328 331 330 329 327 325 328 330 333 340 344 342 342 343 341 344 342 340 336 328 321 320 316 315 310 311 308 303 307 306 305 305
295 296 296 298 300 303 303 304 305 309 309 312 321 323 328 331 331 331 331 333 334 339 344 343 343 344 344 344 339 332 324 320 318 313 310 306 305 307 305 301 302 302 302
293 294 295 295 295 296 297 298 298 302 304 306 308 313 318 323 326 330 333 333 334 333 339 346 345 345 345 344 339 334 326 321 316 311 309 306 305 303 301 299 298 297 299
291 291 291 292 292 293 293 294 294 296 298 300 304 308 311 316 319 323 325 325 326 329 330 337 344 346 345 343 336 330 325 321 318 312 310 306 304 303 300 299 297 296 297
290 290 291 291 291 292 292 292 292 294 294 295 298 301 303 307 310 317 319 317 319 327 331 331 337 343 341 335 328 326 324 321 317 310 308 305 304 303 301 299 297 294 295
289 290 291 291 291 291 292 292 292 292 292 293 294 295 297 298 301 305 310 315 317 322 325 333 333 336 333 328 326 324 321 318 314 310 307 304 303 303 303 300 298 296 293
289 290 290 291 292 293 293 294 293 292 292 293 294 295 295 296 298 300 303 308 313 316 318 327 334 332 329 326 324 322 319 316 313 310 307 306 304 303 302 301 301 299 296
288 289 290 292 292 293 293 293 294 293 293 293 294 294 294 296 297 298 300 303 307 312 314 323 333 329 325 324 323 320 317 314 313 311 308 307 304 302 303 302 301 301 301
288 289 290 291 292 292 293 293 293 293 294 294 294 293 294 296 298 298 299 301 302 307 310 317 331 328 327 326 322 319 318 315 313 311 308 306 306 304 303 301 299 300 300
289 289 290 291 291 292 293 293 293 293 294 294 293 294 295 297 297 298 300 301 302 304 308 314 333 327 324 324 324 321 318 315 313 312 309 306 305 302 300 298 298 297 298
288 289 290 290 292 293 293 293 293 293 294 294 293 293 294 296 296 298 299 301 302 303 307 312 332 327 324 323 321 319 317 315 313 310 309 306 306 303 300 298 297 297 295
288 288 289 291 292 293 294 294 293 294 293 293 293 293 294 296 296 298 299 301 302 304 309 311 327 325 323 322 319 318 316 313 309 308 307 306 307 309 304 298 296 296 295
287 289 290 292 292 293 294 294 293 293 293 293 293 294 294 295 295 296 299 301 302 303 309 314 324 321 321 313 314 316 313 311 308 306 305 307 312 310 308 306 304 300 295
288 288 290 291 292 293 294 295 294 294 294 294 294 294 294 293 293 295 299 301 301 303 309 318 321 320 319 309 310 312 311 308 307 305 303 306 309 308 305 307 306 305 304
287 288 289 290 292 293 293 296 294 293 294 293 294 294 294 293 292 292 296 301 307 304 310 319 314 311 309 305 305 307 307 305 305 304 303 302 300 300 304 302 301 300 300
288 288 290 291 291 292 293 294 294 292 293 293 293 294 294 292 290 289 294 301 304 303 302 305 306 304 303 302 302 304 303 300 300 301 300 298 297 297 299 300 298 296 297
288 288 290 291 291 292 292 292 292 291 290 292 293 295 294 292 289 288 291 300 299 298 298 298 299 299 296 297 299 301 300 297 296 296 296 297 295 295 295 294 293 293 293
289 291 290 289 290 291 290 290 290 290 293 292 293 294 294 293 291 289 290 292 295 294 294 293 294 294 294 294 295 296 297 297 296 296 295 295 294 294 294 294 292 291 291
289 290 288 289 290 291 289 288 289 293 294 293 292 293 295 294 293 289 288 288 288 288 286 286 288 291 292 293 293 293 294 295 293 293 292 292 292 292 293 293 293 293 293
288 289 287 288 290 290 289 288 291 293 292 291 291 292 294 294 293 290 286 286 287 286 285 285 285 285 288 291 292 291 292 292 290 291 291 291 291 291 292 293 294 293 289
288 288 287 287 288 290 290 290 292 293 291 289 290 291 291 295 293 291 290 288 286 286 285 285 285 286 287 289 290 290 290 291 290 290 288 290 291 293 293 293 293 293 294
288 288 287 287 288 290 290 291 292 292 290 289 290 289 290 291 293 291 290 290 290 290 288 288 288 287 287 289 290 289 289 288 289 288 288 288 290 292 292 293 293 293 293
287 288 288 288 289 290 290 291 292 291 289 288 289 289 289 289 290 290 291 292 291 291 290 290 290 290 290 290 290 290 290 289 289 287 287 289 290 290 291 291 291 291 292
Wind_Speed
17 22 23 24 26 27 26 21 18 11 4 4 3 3 4 2 2 2 4 5 5 6 7 6 5 5 5 5 5 3 4 2 2 3 2 4 5 5 4 3 3 4 3
25 24 25 25 26 22 24 26 24 21 15 2 3 4 3 3 3 3 4 5 5 6 6 6 5 5 3 6 6 4 3 2 3 3 2 1 4 4 4 3 3 4 2
25 25 27 26 22 23 25 23 22 22 21 19 9 3 3 3 2 3 2 1 5 6 7 7 6 6 5 6 5 7 7 5 3 3 5 2 4 1 2 3 3 3 3
23 23 25 24 22 21 20 20 21 22 21 22 16 14 7 2 1 3 3 4 5 5 7 9 9 8 8 9 7 6 5 6 6 2 3 2 4 4 2 2 3 3 5
21 23 23 23 22 21 19 19 20 19 19 21 18 13 14 6 5 3 6 8 8 13 8 11 12 12 9 11 12 9 7 5 5 4 3 2 2 2 4 3 2 3 3
19 19 19 21 21 20 20 19 20 18 20 18 17 17 16 16 10 9 9 10 10 11 9 10 10 12 12 13 12 12 11 10 5 4 4 5 5 4 4 4 2 2 2
15 16 18 19 20 24 24 19 21 20 19 19 17 16 16 15 15 11 7 10 10 10 8 7 8 9 12 13 11 11 11 9 8 8 5 4 4 4 3 4 3 3 2
14 15 16 16 16 19 22 25 25 21 20 18 18 15 15 10 11 13 11 10 10 12 11 9 10 12 9 7 4 4 1 7 6 7 4 4 4 4 4 5 6 2 1
16 17 17 15 15 15 16 19 20 25 25 20 17 16 15 15 13 15 14 11 13 12 15 14 14 10 7 7 9 9 8 3 6 5 7 5 3 4 4 4 4 6 5
17 16 15 15 14 16 16 16 15 19 20 23 19 16 17 15 16 16 17 17 16 15 14 17 16 13 7 9 8 7 10 7 6 3 9 5 4 5 4 4 4 3 5
14 14 14 16 17 16 16 16 16 17 16 20 22 21 19 18 16 16 17 16 18 17 17 19 13 13 11 13 12 9 13 13 8 5 10 10 8 5 4 4 3 4 3
12 13 15 17 18 20 18 17 20 18 18 19 16 19 22 21 20 19 19 18 19 20 19 22 12 14 16 15 15 13 14 10 13 12 9 13 9 8 6 4 6 4 4
11 11 13 15 17 16 17 20 17 20 19 20 21 20 18 19 24 24 23 21 20 20 21 21 16 15 15 15 17 17 19 18 18 16 12 10 11 7 5 5 6 4 3
12 12 15 16 18 17 18 20 19 20 17 18 21 21 22 19 20 23 25 22 21 21 21 20 20 15 17 17 14 16 19 19 14 10 9 11 10 11 10 7 7 5 5
13 13 15 16 17 17 18 20 20 20 21 18 19 20 21 20 20 21 24 21 23 21 20 20 16 15 17 15 20 18 16 16 12 8 7 8 9 13 10 6 6 6 4
12 13 14 16 17 18 18 21 21 21 22 19 19 22 20 20 20 22 23 23 22 23 20 22 17 16 13 17 21 20 17 12 15 11 6 6 11 10 12 12 14 10 6
11 12 13 13 15 15 16 17 19 18 18 19 20 21 22 22 22 23 24 21 22 19 20 20 16 17 14 22 20 19 12 14 12 11 9 7 6 7 6 9 11 11 10
10 12 11 12 14 14 15 15 15 17 18 19 20 22 22 21 23 24 25 24 16 16 14 12 10 11 11 24 21 20 14 11 9 9 8 9 7 5 6 5 5 4 2
10 8 9 10 12 12 13 13 15 15 16 20 21 20 22 22 24 25 27 19 11 8 8 5 6 18 12 26 29 20 16 14 11 10 10 9 8 12 10 5 5 5 3
7 8 10 9 9 12 12 12 13 12 14 16 16 18 21 21 23 23 25 15 14 15 12 14 14 18 20 27 24 20 12 14 10 12 13 16 12 13 12 5 5 3 1
9 9 9 8 10 10 10 12 13 14 14 13 14 14 20 20 23 22 19 21 18 17 17 14 18 21 21 25 25 27 14 10 10 9 7 6 12 9 5 4 2 2 2
9 9 7 8 9 10 8 11 12 14 13 11 13 14 13 16 16 21 19 19 17 16 18 13 13 16 16 23 28 23 23 18 11 8 5 4 7 6 5 2 4 5 3
7 6 6 9 10 10 7 9 13 12 12 12 13 13 10 12 15 14 16 12 13 12 13 9 9 9 10 9 25 24 20 20 11 6 5 3 4 3 3 2 2 7 3
6 6 8 8 9 11 11 10 12 13 12 13 12 11 10 7 10 9 9 9 9 9 8 7 7 9 11 11 9 8 8 13 8 8 5 3 2 3 3 4 4 3 3
5 5 6 7 8 10 11 11 11 11 11 11 12 12 9 7 4 6 8 7 10 11 8 8 9 10 12 9 9 9 7 6 6 6 4 3 3 3 4 3 3 3 1
5 6 7 7 8 9 10 11 11 10 10 10 9 9 9 9 6 3 3 9 11 15 15 16 11 8 15 17 16 15 13 12 7 4 2 4 5 5 4 3 2 1 1
Wind_Direction
31 32 32 34 26 22 23 14 14 344 194 195 210 292 258 237 241 268 295 287 273 268 268 258 210 180 188 194 190 165 177 207 164 100 21 18 26 42 36 25 90 96 102
21 26 28 34 28 13 16 17 15 8 357 288 217 206 186 205 172 174 186 182 221 238 248 235 235 245 186 190 189 187 154 172 192 134 82 63 349 3 14 11 52 69 60
17 15 16 23 20 15 13 12 5 9 14 1 342 318 356 351 46 20 28 351 221 225 229 226 215 198 223 233 217 177 172 176 197 223 146 131 202 146 342 357 16 30 35
14 13 8 11 10 10 6 6 2 7 4 9 8 5 343 350 6 323 319 310 322 220 225 230 223 198 202 205 204 214 182 148 173 172 179 122 155 175 170 309 316 348 25
11 8 5 356 359 2 2 355 355 356 2 360 360 0 343 309 287 279 282 296 299 297 241 212 229 222 211 211 191 186 214 173 156 161 160 132 88 106 136 180 283 357 0
3 3 358 355 355 353 357 353 355 353 355 354 348 347 347 336 333 323 302 274 279 281 282 259 238 231 221 206 197 188 203 188 155 158 172 164 161 184 153 124 151 188 319
359 360 355 356 354 350 349 351 351 349 350 343 342 341 337 332 330 321 311 308 300 290 263 292 271 245 233 223 197 182 187 190 167 178 176 157 153 139 121 115 128 154 268
354 354 356 356 353 349 345 344 345 343 342 339 335 335 329 327 313 313 312 300 295 290 293 275 268 265 234 219 131 140 168 270 183 165 173 144 154 144 150 150 138 111 299
353 351 353 356 349 348 347 340 342 336 335 334 331 327 325 321 311 305 298 293 289 292 299 293 274 265 220 148 165 155 139 223 283 164 145 124 143 116 135 130 133 143 173
349 349 350 348 348 346 343 341 339 332 325 326 329 324 321 316 310 306 300 297 292 290 299 292 264 255 177 149 148 170 147 146 283 177 142 130 126 121 124 120 125 112 132
342 346 346 352 345 347 348 340 338 329 324 323 323 320 320 318 310 302 297 295 297 294 286 282 236 212 178 167 172 161 145 142 224 233 175 136 142 132 133 126 113 109 115
343 347 348 351 355 351 345 344 343 335 329 328 315 309 311 318 315 308 302 298 295 294 289 291 227 212 211 199 181 158 143 166 205 210 213 149 146 141 150 140 126 124 107
342 346 345 348 353 346 342 347 340 336 330 328 326 320 315 312 316 310 306 298 293 286 287 287 246 199 193 192 199 175 175 183 198 197 184 152 138 146 149 140 125 123 107
346 351 348 351 349 344 343 344 340 338 327 325 326 321 320 315 310 304 302 295 287 282 283 284 253 198 186 168 169 170 183 174 199 184 163 156 160 164 153 140 139 131 124
351 352 349 347 344 337 339 345 343 338 338 328 325 324 319 316 311 305 299 290 286 278 271 278 236 192 181 172 172 172 184 166 167 155 157 141 157 162 148 136 134 130 120
343 342 342 345 340 338 332 343 343 339 341 334 330 333 329 322 320 311 301 291 281 276 266 268 211 185 180 174 170 173 159 176 153 152 142 140 153 150 144 137 149 153 145
327 331 331 332 330 329 326 337 338 338 335 338 336 335 334 331 328 318 309 294 276 262 257 256 197 189 176 151 157 154 151 154 146 141 134 132 145 144 134 140 157 171 166
321 328 321 321 323 319 317 323 329 337 338 341 339 344 340 337 334 330 323 312 267 248 245 216 162 144 136 131 133 133 127 114 109 116 116 100 86 65 120 136 154 158 139
300 295 297 307 312 315 316 320 325 326 334 344 345 343 348 346 343 339 336 345 6 36 55 76 139 126 113 121 120 116 106 97 84 75 76 91 80 55 73 99 114 93 89
300 300 314 322 320 323 320 320 321 317 335 329 339 343 351 357 351 348 352 4 24 33 47 64 75 67 84 72 85 100 103 97 92 89 65 69 71 63 58 74 81 105 117
309 323 328 321 318 317 318 331 328 329 314 316 327 341 -0 4 6 357 1 8 26 41 35 36 56 66 52 67 62 75 78 82 87 78 84 60 54 51 59 95 120 192 152
325 324 324 325 323 327 332 328 334 324 323 324 331 352 6 7 5 3 4 16 15 23 44 0 11 55 56 54 67 70 81 80 83 81 74 42 23 359 332 253 214 213 158
323 318 332 337 336 328 332 335 324 330 337 344 345 347 5 15 7 7 360 8 13 20 24 357 15 21 49 47 63 59 68 72 70 70 55 15 325 302 252 236 185 118 120
328 319 345 338 334 333 339 343 339 342 349 348 349 351 354 17 21 11 12 13 13 20 26 11 6 16 38 37 27 45 57 64 69 58 51 17 321 245 170 99 99 132 128
331 337 342 333 333 335 337 340 348 348 352 350 355 0 2 358 29 33 22 27 32 30 28 18 18 22 33 24 39 45 41 53 50 57 46 34 41 23 52 68 60 46 311
330 345 336 339 336 338 338 344 348 353 357 356 357 1 3 6 9 356 24 30 35 31 24 25 30 21 36 33 36 44 51 63 67 75 62 43 40 36 22 23 9 270 297